Regional Weather Roundup
Issued by NWS Cleveland, OH

Home | Current Version | Previous Version | Graphics & Text | Print | Product List | Glossary On
Versions: 1 2 3 4 5 6 7 8 9 10 11 12 13 14 15 16 17 18 19 20 21 22 23 24 25 26 27 28 29 30 31 32 33 34 35 36 37 38 39 40 41 42 43 44 45 46 47 48 49 50
000
ASUS41 KCLE 291710
RWRCLE
OHIO REGIONAL WEATHER ROUNDUP
NATIONAL WEATHER SERVICE WILMINGTON, OH
100 PM EDT WED MAR 29 2017

NOTE: "FAIR" INDICATES FEW OR NO CLOUDS BELOW 12,000 FEET WITH NO
SIGNIFICANT WEATHER AND/OR OBSTRUCTIONS TO VISIBILITY.

OHZ001>008-015>018-024>027-034-035-043-044-291800-
   NORTHWEST OHIO

CITY           SKY/WX    TMP DP  RH WIND       PRES   REMARKS
DEFIANCE       FAIR      50  37  61 E13       30.27R
FINDLAY        FAIR      51  37  58 E10G22    30.24F
TOLEDO EXPRESS FAIR      51  32  48 E12G20    30.27S
TOLEDO EXEC    FAIR      52  38  58 E8G18     30.28F
LIMA           FAIR      52  41  66 NE14      30.24R
$$

OHZ009>014-019>023-028>033-038-089-291800-
   NORTHEAST OHIO

CITY           SKY/WX    TMP DP  RH WIND       PRES   REMARKS
CLE-HOPKINS    FAIR      53  37  54 NE12      30.27F
CLE-LAKEFRONT  HAZE      43  38  82 N8        30.25F VSB 1/2
CUY CO. ARPT   MOSUNNY   52  41  66 N12       30.25F
LORAIN-ELYRIA  FAIR      51  32  48 E9G22     30.25F
ASHTABULA      FAIR      51  32  48 N10       30.25F
AKRON-CANTON   FAIR      52  35  52 NE14      30.22F
WOOSTER        FAIR      51  37  58 E13       30.22F
MANSFIELD      FAIR      49  38  65 E9        30.22F
YOUNGSTOWN     FAIR      53  34  48 N10       30.23F
$$

OHZ042-051>053-060>062-070>072-077>081-291800-
  SOUTHWEST OHIO

CITY           SKY/WX    TMP DP  RH WIND       PRES   REMARKS
CINC-COVINGTON FAIR      52  41  66 NE10      30.18R
CINC-LUNKEN    CLOUDY    51  44  77 NE8       30.20F
HAMILTON       CLOUDY    50  43  77 E10       30.22S
DAYTON         FAIR      54  39  57 E16       30.20F
WRIGHT-PAT AFB MOSUNNY   54  41  61 E13G18    30.20F
DAYTON GENERAL FAIR      51  41  68 E10       30.18F
WILMINGTON     CLOUDY    46  41  82 E10G20    30.19F
$$

OHZ036-037-039>041-045>050-054>059-063>069-073>076-082>088-291800-
  CENTRAL AND SOUTHEAST OHIO

CITY           SKY/WX    TMP DP  RH WIND       PRES   REMARKS
COLUMBUS       FAIR      56  40  55 E9        30.19F
OSU AIRPORT    FAIR      54  39  57 NE13      30.19F
BOLTON FIELD   SUNNY     55  39  54 E10       30.19F
RICKENBACK AFB FAIR      53  41  64 E13       30.19F
NEWARK         FAIR      54  37  52 E9        30.19F
MARION         FAIR      50  40  68 E13       30.22F
LANCASTER      FAIR      54  41  61 E9        30.20F
ZANESVILLE     FAIR      55  39  54 VRB5      30.20F
NEW PHILLY     FAIR      55  35  47 NE10G16   30.21F
$$



USA.gov is the U.S. government's official web portal to all federal, state and local government web resources and services.